Hourly Weather Abla

Today, 16 January, Saturday

Time Temperature Precipitation Wind Pressure Humidity
00:00 -1°C° 0 mm 3 mps 623 mmHg 36%
01:00 -1°C° 0 mm 3 mps 623 mmHg 35%
02:00 -1°C° 0 mm 3 mps 623 mmHg 35%
03:00 -1°C° 0 mm 3 mps 623 mmHg 35%
04:00 -1°C° 0 mm 3 mps 623 mmHg 36%
05:00 -1°C° 0 mm 3 mps 623 mmHg 36%
06:00 -2°C° 0 mm 3 mps 623 mmHg 38%
07:00 -1°C° 0 mm 3 mps 624 mmHg 38%
08:00 +2°C° 0 mm 2 mps 625 mmHg 39%
09:00 +3°C° 0 mm 2 mps 626 mmHg 39%
10:00 +4°C° 0 mm 2 mps 626 mmHg 37%
11:00 +5°C° 0 mm 2 mps 627 mmHg 36%
12:00 +6°C° 0 mm 2 mps 628 mmHg 33%
13:00 +6°C° 0 mm 2 mps 627 mmHg 36%
14:00 +6°C° 0 mm 2 mps 627 mmHg 39%
15:00 +6°C° 0 mm 2 mps 627 mmHg 41%
16:00 +5°C° 0 mm 1 mps 627 mmHg 46%
17:00 +3°C° 0 mm 1 mps 626 mmHg 52%
18:00 +1°C° 0 mm 1 mps 626 mmHg 57%
19:00 +1°C° 0 mm 1 mps 626 mmHg 54%
20:00 +1°C° 0 mm 1 mps 626 mmHg 51%
21:00 +1°C° 0 mm 1 mps 626 mmHg 48%
22:00 0°C° 0 mm 1 mps 626 mmHg 46%
23:00 0°C° 0 mm 1 mps 626 mmHg 44%

Tomorrow, 17 January, Sunday

Time Temperature Precipitation Wind Pressure Humidity
00:00 0°C° 0 mm 1 mps 626 mmHg 43%
01:00 0°C° 0 mm 1 mps 626 mmHg 42%
02:00 0°C° 0 mm 1 mps 626 mmHg 41%
03:00 0°C° 0 mm 1 mps 626 mmHg 40%
04:00 0°C° 0 mm 1 mps 625 mmHg 39%
05:00 0°C° 0 mm 1 mps 625 mmHg 39%
06:00 0°C° 0 mm 1 mps 625 mmHg 38%
07:00 +2°C° 0 mm 1 mps 626 mmHg 39%
08:00 +3°C° 0 mm 1 mps 627 mmHg 39%
09:00 +5°C° 0 mm 1 mps 628 mmHg 40%
10:00 +7°C° 0 mm 1 mps 628 mmHg 37%
11:00 +8°C° 0 mm 1 mps 629 mmHg 33%
12:00 +9°C° 0 mm 1 mps 629 mmHg 30%
13:00 +10°C° 0 mm 1 mps 629 mmHg 32%
14:00 +10°C° 0 mm 1 mps 628 mmHg 34%
15:00 +10°C° 0 mm 1 mps 628 mmHg 36%
16:00 +8°C° 0 mm 1 mps 627 mmHg 39%
17:00 +5°C° 0 mm 1 mps 626 mmHg 42%
18:00 +2°C° 0 mm 2 mps 626 mmHg 45%
19:00 +2°C° 0 mm 2 mps 626 mmHg 42%
20:00 +3°C° 0 mm 1 mps 625 mmHg 39%
21:00 +3°C° 0 mm 1 mps 625 mmHg 35%
22:00 +3°C° 0 mm 1 mps 625 mmHg 36%
23:00 +2°C° 0 mm 1 mps 625 mmHg 36%

Day after tomorrow, 18 January, Monday

Time Temperature Precipitation Wind Pressure Humidity
00:00 +1°C° 0 mm 0 mps 625 mmHg 36%
01:00 +1°C° 0 mm 0 mps 625 mmHg 38%
02:00 +1°C° 0 mm 0 mps 625 mmHg 39%
03:00 0°C° 0 mm 0 mps 624 mmHg 41%
04:00 0°C° 0 mm 0 mps 624 mmHg 42%
05:00 0°C° 0 mm 0 mps 624 mmHg 43%
06:00 0°C° 0 mm 0 mps 624 mmHg 44%
07:00 +2°C° 0 mm 1 mps 625 mmHg 45%
08:00 +4°C° 0 mm 1 mps 626 mmHg 45%
09:00 +5°C° 0 mm 1 mps 627 mmHg 46%
10:00 +6°C° 0 mm 1 mps 627 mmHg 43%
11:00 +7°C° 0 mm 1 mps 627 mmHg 40%
12:00 +7°C° 0 mm 2 mps 628 mmHg 37%
13:00 +8°C° 0 mm 1 mps 628 mmHg 39%
14:00 +8°C° 0 mm 1 mps 627 mmHg 41%
15:00 +8°C° 0 mm 1 mps 627 mmHg 44%
16:00 +6°C° 0 mm 1 mps 626 mmHg 53%
17:00 +4°C° 0 mm 1 mps 626 mmHg 62%
18:00 +2°C° 0 mm 0 mps 625 mmHg 72%
19:00 +1°C° 0 mm 0 mps 625 mmHg 71%
20:00 +1°C° 0 mm 0 mps 625 mmHg 71%
21:00 +1°C° 0 mm 0 mps 625 mmHg 71%
22:00 0°C° 0 mm 0 mps 625 mmHg 70%
23:00 0°C° 0 mm 0 mps 625 mmHg 70%

19 January, Tuesday

Time Temperature Precipitation Wind Pressure Humidity
00:00 0°C° 0 mm 0 mps 625 mmHg 69%
01:00 -1°C° 0 mm 0 mps 624 mmHg 69%
02:00 -1°C° 0 mm 0 mps 624 mmHg 69%
03:00 -1°C° 0 mm 0 mps 624 mmHg 68%
04:00 -1°C° 0 mm 0 mps 623 mmHg 67%
05:00 -1°C° 0 mm 0 mps 623 mmHg 67%
06:00 -1°C° 0 mm 0 mps 623 mmHg 66%
07:00 0°C° 0 mm 0 mps 624 mmHg 61%
08:00 +2°C° 0 mm 0 mps 625 mmHg 56%
09:00 +4°C° 0 mm 0 mps 625 mmHg 51%
10:00 +5°C° 0 mm 1 mps 626 mmHg 48%
11:00 +6°C° 0 mm 1 mps 626 mmHg 45%
12:00 +7°C° 0 mm 1 mps 626 mmHg 42%
13:00 +7°C° 0 mm 1 mps 626 mmHg 43%
14:00 +8°C° 0 mm 1 mps 625 mmHg 44%
15:00 +8°C° 0 mm 1 mps 625 mmHg 46%
16:00 +6°C° 0 mm 1 mps 624 mmHg 53%
17:00 +4°C° 0 mm 1 mps 623 mmHg 60%
18:00 +2°C° 0 mm 1 mps 622 mmHg 68%
19:00 +2°C° 0 mm 1 mps 622 mmHg 63%
20:00 +2°C° 0 mm 1 mps 622 mmHg 59%
21:00 +2°C° 0 mm 1 mps 622 mmHg 55%
22:00 +2°C° 0 mm 1 mps 622 mmHg 51%
23:00 +1°C° 0 mm 2 mps 621 mmHg 48%

20 January, Wednesday

Time Temperature Precipitation Wind Pressure Humidity
00:00 -1°C° 0 mm 2 mps 621 mmHg 45%
01:00 -1°C° 0 mm 2 mps 621 mmHg 42%
02:00 -1°C° 0 mm 2 mps 620 mmHg 40%
03:00 -1°C° 0 mm 2 mps 620 mmHg 38%
04:00 -1°C° 0 mm 2 mps 620 mmHg 37%
05:00 -1°C° 0 mm 2 mps 619 mmHg 37%
06:00 -1°C° 0 mm 3 mps 619 mmHg 36%
07:00 0°C° 0 mm 3 mps 619 mmHg 37%
08:00 +1°C° 0 mm 3 mps 619 mmHg 38%
09:00 +2°C° 0 mm 3 mps 620 mmHg 39%
10:00 +3°C° 0 mm 3 mps 620 mmHg 40%
11:00 +4°C° 0 mm 3 mps 620 mmHg 41%
12:00 +5°C° 0 mm 4 mps 620 mmHg 42%
13:00 +5°C° 0.1 mm 4 mps 619 mmHg 51%
14:00 +4°C° 0.1 mm 4 mps 619 mmHg 59%
15:00 +4°C° 0.1 mm 4 mps 618 mmHg 68%
16:00 +3°C° 0.5 mm 4 mps 618 mmHg 76%
17:00 +2°C° 0.5 mm 3 mps 618 mmHg 83%
18:00 +1°C° 0.5 mm 3 mps 618 mmHg 91%
19:00 +1°C° 0.1 mm 3 mps 618 mmHg 91%
20:00 0°C° 0.1 mm 4 mps 618 mmHg 90%
21:00 -1°C° 0.1 mm 4 mps 619 mmHg 90%
22:00 0°C° 0.1 mm 4 mps 619 mmHg 89%
23:00 0°C° 0.1 mm 4 mps 619 mmHg 88%

21 January, Thursday

Time Temperature Precipitation Wind Pressure Humidity
00:00 0°C° 0.1 mm 4 mps 619 mmHg 87%
01:00 0°C° 0 mm 4 mps 619 mmHg 87%
02:00 0°C° 0 mm 4 mps 619 mmHg 86%
03:00 0°C° 0 mm 4 mps 619 mmHg 86%
04:00 0°C° 0 mm 4 mps 620 mmHg 85%
05:00 0°C° 0 mm 4 mps 620 mmHg 85%
06:00 0°C° 0 mm 4 mps 620 mmHg 85%
07:00 +1°C° 0 mm 4 mps 621 mmHg 83%
08:00 +1°C° 0 mm 4 mps 621 mmHg 82%
09:00 +3°C° 0 mm 4 mps 622 mmHg 81%
10:00 +4°C° 0 mm 4 mps 622 mmHg 75%
11:00 +5°C° 0 mm 4 mps 623 mmHg 70%
12:00 +6°C° 0 mm 4 mps 623 mmHg 64%
13:00 +6°C° 0 mm 4 mps 623 mmHg 64%
14:00 +6°C° 0 mm 5 mps 623 mmHg 64%
15:00 +6°C° 0 mm 5 mps 622 mmHg 63%
16:00 +5°C° 0 mm 4 mps 622 mmHg 70%
17:00 +4°C° 0 mm 4 mps 621 mmHg 77%
18:00 +3°C° 0 mm 4 mps 621 mmHg 84%
19:00 +1°C° 0 mm 4 mps 621 mmHg 82%
20:00 +1°C° 0 mm 4 mps 621 mmHg 80%
21:00 +1°C° 0 mm 4 mps 621 mmHg 78%
22:00 +1°C° 0 mm 5 mps 621 mmHg 79%
23:00 +1°C° 0 mm 6 mps 621 mmHg 80%
Show more